Location: Baix
(44.7118°N, 4.7648°E)
Time: 16:32:39
(UTC+00:00)

S-56A Canister/Altair - Visible Passes

Search period start: 08 May 2021 00:00
Search period end: 18 May 2021 00:00
Orbit: 632 x 2501 km, 38.9° (Epoch: 07 May)

Date Brightness Start Highest point End Pass type
(mag) Time Alt. Az. Time Alt. Az. Time Alt. Az.
08 May 9.5 19:45:01 10° W 19:58:45 65° S 20:07:53 12° ESE visible
08 May 9.3 21:52:20 10° W 22:03:11 42° SSW 22:05:18 37° S visible
09 May 10.7 00:02:10 10° WSW 00:02:42 11° WSW 00:02:42 11° WSW visible
09 May 9.7 19:11:16 10° W 19:25:30 67° S 19:35:41 10° ESE visible
09 May 9.4 21:18:31 10° W 21:30:18 47° SSW 21:34:09 32° SSE visible
09 May 10.4 23:27:24 10° W 23:31:33 16° WSW 23:31:33 16° WSW visible
10 May 9.6 20:44:42 10° W 20:57:19 51° SSW 21:03:01 25° SE visible
10 May 10.2 22:53:05 10° W 23:00:26 21° SW 23:00:26 21° SW visible
11 May 9.7 20:10:54 10° W 20:24:15 55° SSW 20:31:54 18° SE visible
11 May 10.0 22:18:56 10° W 22:27:45 25° SW 22:29:18 24° SSW visible
12 May 9.8 19:37:07 10° W 19:51:03 59° SSW 20:00:47 12° SE visible
12 May 9.9 21:44:53 10° W 21:55:00 30° SW 21:58:11 25° SSW visible
13 May 10.0 21:10:55 10° W 21:22:09 34° SW 21:27:05 23° S visible
14 May 10.1 20:37:00 10° W 20:49:12 39° SW 20:56:01 19° SSE visible
14 May 10.8 22:48:50 10° WSW 22:51:40 11° WSW 22:53:25 11° SW visible
15 May 10.2 20:03:08 10° W 20:16:08 43° SSW 20:24:57 14° SSE visible
15 May 10.7 22:13:10 10° W 22:19:00 15° SW 22:22:22 13° SW visible
16 May 10.2 19:29:20 10° W 19:42:59 48° SSW 19:53:29 10° SE visible
16 May 10.6 21:38:25 10° W 21:46:16 19° SW 21:51:20 13° SSW visible
17 May 10.6 21:04:02 10° W 21:13:27 23° SW 21:20:20 12° S visible
